WZZ4350 LYBE-LROP

Flight info

Callsign WZZ4350
Flight time 0h 54m
Altitude 19000
Route DONIV4W/30R DONIV L5 VELIP DCT TOSVI
Aircraft A20N/M-SDE2E3FGHIRWXY/LB1

Departure

Time 2026-04-30 09:02
Airport Belgrade Nikola Tesla Airport (LYBE)

Arrival

Time 2026-04-30 09:56
Airport Bucharest Henri Coandă International Airport (LROP)
Time Latitude Longitude Altitude Speed Heading
2026-04-30 08:41 44.81856 20.29206 328 ft 0 kts 280°
2026-04-30 08:51 44.81854 20.29220 323 ft 2 kts 296°
2026-04-30 08:51 44.81846 20.29240 326 ft 2 kts 310°
2026-04-30 08:52 44.81833 20.29255 325 ft 2 kts 337°
2026-04-30 08:52 44.81817 20.29261 325 ft 2 kts 358°
2026-04-30 08:52 44.81801 20.29260 325 ft 2 kts 14°
2026-04-30 08:52 44.81792 20.29256 328 ft 0 kts 27°
2026-04-30 08:54 44.81795 20.29259 327 ft 1 kts 28°
2026-04-30 08:54 44.81812 20.29271 327 ft 4 kts 28°
2026-04-30 08:54 44.81845 20.29297 325 ft 7 kts 31°
2026-04-30 08:54 44.81893 20.29338 326 ft 9 kts 31°
2026-04-30 08:55 44.81954 20.29393 325 ft 12 kts 32°
2026-04-30 08:55 44.82029 20.29459 328 ft 14 kts 32°
2026-04-30 08:55 44.82100 20.29525 328 ft 10 kts 41°
2026-04-30 08:55 44.82106 20.29618 327 ft 11 kts 112°
2026-04-30 08:56 44.82062 20.29722 327 ft 14 kts 123°
2026-04-30 08:56 44.82006 20.29843 326 ft 16 kts 123°
2026-04-30 08:56 44.81964 20.29937 328 ft 17 kts 122°
2026-04-30 08:56 44.81895 20.30090 328 ft 19 kts 122°
2026-04-30 08:57 44.81821 20.30257 330 ft 21 kts 122°
2026-04-30 08:57 44.81739 20.30442 329 ft 23 kts 121°
2026-04-30 08:57 44.81653 20.30641 331 ft 25 kts 121°
2026-04-30 08:57 44.81562 20.30854 333 ft 26 kts 121°
2026-04-30 08:58 44.81465 20.31076 332 ft 27 kts 123°
2026-04-30 08:58 44.81356 20.31301 333 ft 28 kts 124°
2026-04-30 08:58 44.81253 20.31539 336 ft 29 kts 122°
2026-04-30 08:58 44.81147 20.31783 336 ft 29 kts 121°
2026-04-30 08:59 44.81059 20.31987 335 ft 19 kts 121°
2026-04-30 08:59 44.80997 20.32134 337 ft 14 kts 110°
2026-04-30 08:59 44.81028 20.32258 337 ft 14 kts 36°
2026-04-30 08:59 44.81124 20.32306 338 ft 15 kts
2026-04-30 09:00 44.81189 20.32289 339 ft 0 kts 338°
2026-04-30 09:00 44.81197 20.32285 334 ft 2 kts 338°
2026-04-30 09:00 44.81224 20.32266 335 ft 7 kts 329°
2026-04-30 09:00 44.81275 20.32200 340 ft 13 kts 308°
2026-04-30 09:01 44.81348 20.32041 338 ft 38 kts 303°
2026-04-30 09:01 44.81614 20.31446 330 ft 103 kts 302°
2026-04-30 09:01 44.82086 20.30381 330 ft 151 kts 302°
2026-04-30 09:01 44.82627 20.29086 889 ft 146 kts 298°
2026-04-30 09:02 44.82689 20.26236 2041 ft 161 kts 239°
2026-04-30 09:02 44.81831 20.25150 2546 ft 174 kts 218°
2026-04-30 09:02 44.80874 20.23977 2906 ft 191 kts 229°
2026-04-30 09:03 44.79916 20.22542 3274 ft 210 kts 229°
2026-04-30 09:03 44.78861 20.20975 3546 ft 233 kts 229°
2026-04-30 09:03 44.77670 20.19279 3889 ft 252 kts 227°
2026-04-30 09:03 44.76402 20.17550 4650 ft 255 kts 226°
2026-04-30 09:04 44.75121 20.15833 5577 ft 255 kts 226°
2026-04-30 09:04 44.73827 20.14102 6087 ft 257 kts 225°
2026-04-30 09:04 44.72528 20.12368 6349 ft 260 kts 225°
2026-04-30 09:04 44.71209 20.10604 7064 ft 261 kts 225°
2026-04-30 09:05 44.69924 20.08895 8078 ft 257 kts 224°
2026-04-30 09:05 44.68378 20.07606 8982 ft 263 kts 197°
2026-04-30 09:05 44.66545 20.07467 9845 ft 270 kts 168°
2026-04-30 09:05 44.64830 20.08550 10636 ft 275 kts 142°
2026-04-30 09:06 44.63362 20.10400 11086 ft 294 kts 134°
2026-04-30 09:06 44.61924 20.12547 11641 ft 306 kts 131°
2026-04-30 09:06 44.60729 20.15109 11963 ft 326 kts 109°
2026-04-30 09:06 44.60307 20.18273 12197 ft 343 kts 86°
2026-04-30 09:07 44.60625 20.21667 12776 ft 350 kts 75°
2026-04-30 09:07 44.61184 20.25012 13550 ft 354 kts 73°
2026-04-30 09:07 44.61749 20.28349 14283 ft 359 kts 74°
2026-04-30 09:07 44.62279 20.31801 14919 ft 365 kts 75°
2026-04-30 09:08 44.62770 20.35326 15572 ft 370 kts 76°
2026-04-30 09:08 44.63239 20.38898 16226 ft 375 kts 77°
2026-04-30 09:08 44.63701 20.42526 16850 ft 380 kts 77°
2026-04-30 09:08 44.64177 20.46267 17128 ft 396 kts 78°
2026-04-30 09:09 44.64659 20.50099 17755 ft 401 kts 78°
2026-04-30 09:09 44.65144 20.53978 18359 ft 406 kts 78°
2026-04-30 09:09 44.65636 20.57912 18896 ft 412 kts 78°
2026-04-30 09:09 44.66136 20.61904 19202 ft 417 kts 78°
2026-04-30 09:10 44.66637 20.65918 19311 ft 418 kts 78°
2026-04-30 09:10 44.67129 20.69898 19289 ft 408 kts 78°
2026-04-30 09:10 44.67608 20.73786 19294 ft 403 kts 78°
2026-04-30 09:10 44.68091 20.77693 19301 ft 408 kts 78°
2026-04-30 09:11 44.68575 20.81614 19296 ft 407 kts 78°
2026-04-30 09:11 44.69058 20.85533 19286 ft 406 kts 78°
2026-04-30 09:11 44.69545 20.89484 19292 ft 419 kts 79°
2026-04-30 09:11 44.70045 20.93563 19285 ft 423 kts 79°
2026-04-30 09:12 44.70539 20.97624 19284 ft 420 kts 79°
2026-04-30 09:12 44.71031 21.01676 19288 ft 421 kts 79°
2026-04-30 09:12 44.71523 21.05741 19285 ft 421 kts 79°
2026-04-30 09:12 44.72014 21.09804 19286 ft 421 kts 79°
2026-04-30 09:13 44.72502 21.13860 19286 ft 421 kts 80°
2026-04-30 09:13 44.72990 21.17921 19284 ft 421 kts 80°
2026-04-30 09:13 44.73469 21.21917 19283 ft 421 kts 80°
2026-04-30 09:13 44.73954 21.25979 19284 ft 421 kts 80°
2026-04-30 09:14 44.74436 21.30036 19274 ft 420 kts 80°
2026-04-30 09:14 44.74920 21.34099 19276 ft 425 kts 81°
2026-04-30 09:14 44.75409 21.38225 19279 ft 427 kts 81°
2026-04-30 09:14 44.75891 21.42331 19274 ft 425 kts 81°
2026-04-30 09:15 44.76370 21.46412 19279 ft 425 kts 81°
2026-04-30 09:15 44.76850 21.50518 19277 ft 425 kts 81°
2026-04-30 09:15 44.77189 21.54651 19274 ft 424 kts 89°
2026-04-30 09:15 44.77227 21.58801 19270 ft 424 kts 91°
2026-04-30 09:16 44.77262 21.62948 19272 ft 424 kts 90°
2026-04-30 09:16 44.77346 21.71059 19273 ft 424 kts 90°
2026-04-30 09:16 44.77390 21.75235 19245 ft 424 kts 91°
2026-04-30 09:17 44.77429 21.79389 19270 ft 424 kts 91°
2026-04-30 09:17 44.77465 21.83543 19270 ft 425 kts 91°
2026-04-30 09:17 44.77499 21.87701 19269 ft 424 kts 91°
2026-04-30 09:17 44.77531 21.91847 19269 ft 424 kts 91°
2026-04-30 09:18 44.77562 21.95997 19261 ft 424 kts 91°
2026-04-30 09:18 44.77591 22.00149 19268 ft 425 kts 91°
2026-04-30 09:18 44.77619 22.04301 19265 ft 424 kts 91°
2026-04-30 09:18 44.77643 22.08449 19266 ft 424 kts 91°
2026-04-30 09:19 44.77625 22.12598 19269 ft 423 kts 95°
2026-04-30 09:19 44.77455 22.16682 19275 ft 422 kts 96°
2026-04-30 09:19 44.77256 22.20761 19260 ft 416 kts 96°
2026-04-30 09:19 44.77056 22.24774 19273 ft 418 kts 96°
2026-04-30 09:20 44.76854 22.28859 19268 ft 419 kts 96°
2026-04-30 09:20 44.76658 22.32945 19267 ft 418 kts 96°
2026-04-30 09:20 44.76464 22.37020 19268 ft 417 kts 96°
2026-04-30 09:20 44.76268 22.41110 19274 ft 419 kts 96°
2026-04-30 09:21 44.76069 22.45174 19274 ft 419 kts 96°
2026-04-30 09:21 44.75867 22.49284 19275 ft 419 kts 96°
2026-04-30 09:21 44.75666 22.53373 19278 ft 419 kts 96°
2026-04-30 09:21 44.75463 22.57470 19281 ft 419 kts 96°
2026-04-30 09:22 44.75257 22.61568 19280 ft 420 kts 96°
2026-04-30 09:22 44.75050 22.65662 19281 ft 420 kts 96°
2026-04-30 09:22 44.74843 22.69756 19279 ft 420 kts 96°
2026-04-30 09:22 44.74634 22.73846 19200 ft 418 kts 96°
2026-04-30 09:23 44.74424 22.77912 18935 ft 414 kts 96°
2026-04-30 09:23 44.74217 22.81927 18569 ft 410 kts 96°
2026-04-30 09:23 44.74009 22.85902 18087 ft 405 kts 96°
2026-04-30 09:23 44.73802 22.89827 17617 ft 400 kts 96°
2026-04-30 09:24 44.73599 22.93662 17148 ft 395 kts 96°
2026-04-30 09:24 44.73395 22.97493 16695 ft 390 kts 96°
2026-04-30 09:24 44.73191 23.01277 16222 ft 386 kts 96°
2026-04-30 09:24 44.72989 23.05014 15769 ft 381 kts 96°
2026-04-30 09:25 44.72788 23.08709 15336 ft 376 kts 95°
2026-04-30 09:25 44.72589 23.12355 14893 ft 372 kts 95°
2026-04-30 09:25 44.72391 23.15958 14464 ft 367 kts 95°
2026-04-30 09:25 44.72193 23.19516 14018 ft 362 kts 95°
2026-04-30 09:26 44.71997 23.23035 13505 ft 359 kts 95°
2026-04-30 09:26 44.71801 23.26526 13012 ft 355 kts 95°
2026-04-30 09:26 44.71607 23.29974 12526 ft 352 kts 95°
2026-04-30 09:26 44.71413 23.33389 12035 ft 349 kts 95°
2026-04-30 09:27 44.71220 23.36764 11568 ft 345 kts 94°
2026-04-30 09:27 44.71030 23.40086 11343 ft 336 kts 94°
2026-04-30 09:27 44.70843 23.43356 11289 ft 345 kts 94°
2026-04-30 09:27 44.70649 23.46727 11286 ft 345 kts 94°
2026-04-30 09:28 44.70456 23.50085 11291 ft 345 kts 95°
2026-04-30 09:28 44.70260 23.53449 11287 ft 345 kts 95°
2026-04-30 09:28 44.70063 23.56813 11280 ft 344 kts 95°
2026-04-30 09:28 44.69866 23.60148 11068 ft 342 kts 95°
2026-04-30 09:29 44.69669 23.63470 10681 ft 340 kts 95°
2026-04-30 09:29 44.69473 23.66760 10347 ft 333 kts 95°
2026-04-30 09:29 44.69283 23.69945 10233 ft 320 kts 95°
2026-04-30 09:29 44.69100 23.73002 10107 ft 307 kts 95°
2026-04-30 09:30 44.68922 23.75936 9977 ft 295 kts 94°
2026-04-30 09:30 44.68749 23.78772 9665 ft 290 kts 94°
2026-04-30 09:30 44.68579 23.81570 9320 ft 286 kts 94°
2026-04-30 09:30 44.68411 23.84332 8944 ft 283 kts 93°
2026-04-30 09:31 44.68242 23.87076 8557 ft 281 kts 92°
2026-04-30 09:31 44.68073 23.89800 8202 ft 278 kts 93°
2026-04-30 09:31 44.67907 23.92489 7822 ft 276 kts 93°
2026-04-30 09:31 44.67740 23.95176 7450 ft 274 kts 92°
2026-04-30 09:32 44.67574 23.97830 7118 ft 271 kts 92°
2026-04-30 09:32 44.67411 24.00451 7002 ft 271 kts 92°
2026-04-30 09:32 44.67247 24.03099 6986 ft 272 kts 92°
2026-04-30 09:32 44.67082 24.05746 6984 ft 271 kts 92°
2026-04-30 09:33 44.66917 24.08368 6982 ft 273 kts 92°
2026-04-30 09:33 44.66760 24.11019 6986 ft 271 kts 92°
2026-04-30 09:33 44.66596 24.13631 6983 ft 265 kts 92°
2026-04-30 09:33 44.66427 24.16207 6978 ft 266 kts 92°
2026-04-30 09:34 44.66256 24.18816 7118 ft 269 kts 92°
2026-04-30 09:34 44.66085 24.21459 7131 ft 274 kts 92°
2026-04-30 09:34 44.65912 24.24106 7079 ft 270 kts 92°
2026-04-30 09:34 44.65741 24.26727 6734 ft 272 kts 92°
2026-04-30 09:35 44.65567 24.29425 6387 ft 292 kts 92°
2026-04-30 09:35 44.65378 24.32422 6286 ft 315 kts 92°
2026-04-30 09:35 44.65177 24.35484 6279 ft 316 kts 92°
2026-04-30 09:35 44.64972 24.38562 6277 ft 316 kts 92°
2026-04-30 09:36 44.64766 24.41626 6279 ft 316 kts 92°
2026-04-30 09:36 44.64562 24.44707 6279 ft 316 kts 93°
2026-04-30 09:36 44.64356 24.47787 6280 ft 316 kts 92°
2026-04-30 09:36 44.64149 24.50873 6291 ft 316 kts 92°
2026-04-30 09:37 44.63948 24.53899 6276 ft 315 kts 93°
2026-04-30 09:37 44.63744 24.56960 6280 ft 314 kts 92°
2026-04-30 09:37 44.63544 24.60020 6279 ft 314 kts 92°
2026-04-30 09:37 44.63335 24.63081 6280 ft 316 kts 92°
2026-04-30 09:38 44.63122 24.66147 6274 ft 316 kts 93°
2026-04-30 09:38 44.62911 24.69199 6280 ft 313 kts 92°
2026-04-30 09:38 44.62701 24.72241 6280 ft 313 kts 93°
2026-04-30 09:38 44.62494 24.75278 6278 ft 314 kts 93°
2026-04-30 09:39 44.62283 24.78346 6279 ft 315 kts 93°
2026-04-30 09:39 44.62070 24.81372 6280 ft 304 kts 93°
2026-04-30 09:39 44.61868 24.84238 6281 ft 286 kts 93°
2026-04-30 09:39 44.61677 24.86934 6280 ft 269 kts 93°
2026-04-30 09:40 44.61495 24.89467 6274 ft 253 kts 93°
2026-04-30 09:40 44.61327 24.91889 6281 ft 248 kts 94°
2026-04-30 09:40 44.61157 24.94346 6275 ft 259 kts 94°
2026-04-30 09:40 44.60982 24.96866 6282 ft 259 kts 95°
2026-04-30 09:41 44.60806 24.99335 6273 ft 256 kts 95°
2026-04-30 09:41 44.60626 25.01791 6271 ft 251 kts 94°
2026-04-30 09:41 44.60448 25.04250 6283 ft 255 kts 94°
2026-04-30 09:41 44.60272 25.06742 6273 ft 258 kts 95°
2026-04-30 09:42 44.60093 25.09250 6277 ft 257 kts 94°
2026-04-30 09:42 44.59916 25.11704 6270 ft 249 kts 94°
2026-04-30 09:42 44.59738 25.14195 6273 ft 258 kts 94°
2026-04-30 09:42 44.59558 25.16672 6272 ft 258 kts 94°
2026-04-30 09:43 44.59377 25.19154 6269 ft 250 kts 94°
2026-04-30 09:43 44.59202 25.21505 6269 ft 234 kts 94°
2026-04-30 09:43 44.59039 25.23697 6273 ft 218 kts 94°
2026-04-30 09:43 44.58887 25.25756 6274 ft 211 kts 95°
2026-04-30 09:44 44.58733 25.27866 6261 ft 219 kts 94°
2026-04-30 09:44 44.58578 25.29985 6179 ft 215 kts 95°
2026-04-30 09:44 44.58426 25.32039 6038 ft 209 kts 95°
2026-04-30 09:44 44.58276 25.34052 5794 ft 206 kts 95°
2026-04-30 09:45 44.58128 25.36037 5580 ft 203 kts 94°
2026-04-30 09:45 44.57982 25.37979 5376 ft 199 kts 95°
2026-04-30 09:45 44.57836 25.39882 5223 ft 191 kts 94°
2026-04-30 09:45 44.57696 25.41690 5101 ft 182 kts 94°
2026-04-30 09:46 44.57560 25.43456 4762 ft 186 kts 94°
2026-04-30 09:46 44.57471 25.44674 4489 ft 190 kts 94°
2026-04-30 09:46 44.57334 25.46535 4133 ft 193 kts 93°
2026-04-30 09:46 44.57193 25.48398 3991 ft 193 kts 94°
2026-04-30 09:47 44.57043 25.50284 3976 ft 196 kts 93°
2026-04-30 09:47 44.56847 25.52824 3972 ft 194 kts 93°
2026-04-30 09:47 44.56754 25.54069 3969 ft 194 kts 93°
2026-04-30 09:47 44.56612 25.55969 3970 ft 196 kts 92°
2026-04-30 09:48 44.56469 25.57862 3971 ft 195 kts 93°
2026-04-30 09:48 44.56327 25.59757 3968 ft 195 kts 93°
2026-04-30 09:48 44.56183 25.61632 3816 ft 192 kts 92°
2026-04-30 09:48 44.56040 25.63473 3557 ft 188 kts 92°
2026-04-30 09:49 44.55899 25.65293 3212 ft 189 kts 92°
2026-04-30 09:49 44.55759 25.67107 3004 ft 184 kts 92°
2026-04-30 09:49 44.55620 25.68917 2982 ft 192 kts 92°
2026-04-30 09:49 44.55477 25.70776 2979 ft 191 kts 92°
2026-04-30 09:50 44.55333 25.72629 2979 ft 191 kts 92°
2026-04-30 09:50 44.55192 25.74484 2981 ft 191 kts 92°
2026-04-30 09:50 44.55049 25.76333 2980 ft 190 kts 92°
2026-04-30 09:50 44.54907 25.78172 2986 ft 190 kts 92°
2026-04-30 09:51 44.54765 25.80015 2990 ft 190 kts 93°
2026-04-30 09:51 44.54615 25.81859 2987 ft 190 kts 92°
2026-04-30 09:51 44.54583 25.83628 2987 ft 173 kts 82°
2026-04-30 09:51 44.54758 25.85247 2991 ft 169 kts 80°
2026-04-30 09:52 44.54889 25.86884 2986 ft 168 kts 82°
2026-04-30 09:52 44.55010 25.88476 2866 ft 160 kts 82°
2026-04-30 09:52 44.55123 25.89995 2674 ft 156 kts 81°
2026-04-30 09:52 44.55240 25.91532 2487 ft 160 kts 81°
2026-04-30 09:53 44.55357 25.93075 2289 ft 159 kts 80°
2026-04-30 09:53 44.55470 25.94580 2097 ft 152 kts 79°
2026-04-30 09:53 44.55576 25.95987 1901 ft 139 kts 79°
2026-04-30 09:53 44.55676 25.97296 1731 ft 133 kts 80°
2026-04-30 09:54 44.55774 25.98577 1555 ft 131 kts 80°
2026-04-30 09:54 44.55865 25.99772 1404 ft 117 kts 79°
2026-04-30 09:54 44.55948 26.00873 1253 ft 114 kts 78°
2026-04-30 09:54 44.56035 26.02003 1098 ft 118 kts 78°
2026-04-30 09:55 44.56118 26.03120 946 ft 115 kts 77°
2026-04-30 09:55 44.56203 26.04245 806 ft 117 kts 78°
2026-04-30 09:55 44.56291 26.05374 663 ft 115 kts 77°
2026-04-30 09:55 44.56375 26.06500 514 ft 118 kts 79°
2026-04-30 09:56 44.56458 26.07630 371 ft 114 kts 79°
2026-04-30 09:56 44.56538 26.08685 322 ft 87 kts 82°
2026-04-30 09:56 44.56579 26.09141 321 ft 26 kts 83°
2026-04-30 09:56 44.56600 26.09433 322 ft 38 kts 84°
2026-04-30 09:57 44.56633 26.09782 320 ft 33 kts 81°
2026-04-30 09:57 44.56644 26.10060 323 ft 25 kts 83°
2026-04-30 09:57 44.56666 26.10291 323 ft 23 kts 82°
2026-04-30 09:57 44.56681 26.10510 322 ft 22 kts 85°
2026-04-30 09:58 44.56699 26.10723 323 ft 21 kts 76°
2026-04-30 09:58 44.56737 26.10772 321 ft 5 kts 356°
2026-04-30 09:58 44.56774 26.10762 322 ft 5 kts 351°
2026-04-30 09:58 44.56824 26.10753 322 ft 13 kts 353°
2026-04-30 09:59 44.56871 26.10746 321 ft 0 kts 355°
2026-04-30 09:59 44.56872 26.10746 321 ft 1 kts 355°
2026-04-30 10:00 44.56967 26.10729 320 ft 12 kts 340°
2026-04-30 10:00 44.57032 26.10630 321 ft 17 kts 300°
2026-04-30 10:01 44.57044 26.10220 322 ft 26 kts 264°
2026-04-30 10:01 44.57025 26.09959 322 ft 27 kts 263°
2026-04-30 10:01 44.57005 26.09697 320 ft 27 kts 264°
2026-04-30 10:02 44.56966 26.09195 321 ft 25 kts 264°
2026-04-30 10:02 44.56947 26.08953 321 ft 25 kts 263°
2026-04-30 10:02 44.56934 26.08835 319 ft 2 kts 237°
2026-04-30 10:02 44.56923 26.08822 321 ft 2 kts 216°
2026-04-30 10:03 44.56912 26.08814 320 ft 1 kts 202°
2026-04-30 10:03 44.56903 26.08811 322 ft 1 kts 194°
2026-04-30 10:03 44.56894 26.08810 322 ft 1 kts 185°
2026-04-30 10:03 44.56886 26.08809 321 ft 1 kts 179°
2026-04-30 10:04 44.56884 26.08810 321 ft 0 kts 174°
2026-04-30 10:04 44.56883 26.08810 321 ft 0 kts 174°
2026-04-30 10:04 44.56882 26.08810 321 ft 0 kts 174°